Retour au catalogue

STARLINK-34588

ActifCommunicationsVLEO
NORAD 64729·PAYLOAD·🇺🇸 United States

Lancé Jul 2, 2025 depuis Cape Canaveral Space Force Station

Loading…

Prochains Passages (prochaines 24 heures)

TLE

FraisSource: CelesTrak SupGP

Époque: Sep 14, 2026, 15:08 UTC

1 64729C 25144F   26257.63104167 -.00074644  00000+0 -22070-2 0  2570
2 64729  53.1619  22.8883 0001433  62.6409  69.9184 15.34404511    10

Suivez STARLINK-34588 en temps réel avec AllMySat

Download on the App Store